Lapse_Rate
6.4 6.4 6.4 6.4 6.3 6.4 6.6 6.7 6.8 7.0 7.2 7.4 7.6 7.4 7.3 7.4 7.7 7.8 8.2 8.6 8.2 8.3 8.4 8.6 8.6 8.3 7.6 8.0 8.2 7.3 7.0 7.8 8.4 8.7 8.6 8.6 8.7 8.9 8.9 8.5 8.4 8.3 8.3 8.4 8.5
6.3 6.3 6.3 6.3 6.3 6.4 6.2 6.2 6.3 6.6 6.7 7.1 7.3 7.4 7.5 7.4 7.4 7.8 8.5 8.1 8.0 8.1 8.4 8.4 8.6 8.5 8.2 8.1 8.4 7.2 7.2 8.1 8.9 8.8 8.7 8.4 8.4 8.7 8.7 8.8 8.6 8.5 8.4 8.5 8.5
6.2 6.1 6.0 6.0 6.0 6.1 6.3 6.5 6.5 6.4 6.6 6.7 6.9 7.3 7.6 7.7 7.5 8.0 8.2 8.3 8.3 8.1 8.3 8.5 8.7 8.1 7.9 8.0 8.4 8.0 7.9 8.7 8.5 8.7 8.6 8.4 8.1 8.7 8.4 8.3 8.6 8.8 8.6 8.4 8.7
5.8 5.8 5.8 5.9 5.9 5.9 5.8 6.0 6.1 6.3 6.5 6.7 6.8 7.0 7.3 7.5 6.9 7.7 8.1 8.2 8.2 8.3 8.5 8.5 8.6 8.4 8.5 8.6 8.9 8.0 8.3 8.4 8.6 8.8 8.3 8.2 8.3 7.8 8.1 8.3 8.7 8.5 8.6 8.6 8.8
5.5 5.5 5.5 5.5 5.5 5.6 5.8 5.7 5.7 5.9 6.2 6.6 6.8 7.0 6.9 7.0 7.2 7.4 8.1 8.2 8.1 8.4 8.6 8.6 8.7 8.7 8.4 8.6 8.6 8.3 8.7 8.6 8.3 8.3 8.2 7.9 8.1 8.3 7.7 8.1 8.4 8.2 8.3 8.8 8.9
5.3 5.2 5.2 5.2 5.2 5.2 5.2 5.4 5.5 5.7 6.0 6.2 6.6 6.8 6.8 6.4 7.5 7.8 7.7 8.0 8.2 8.3 8.4 8.5 8.7 8.8 8.4 8.6 8.3 8.5 8.2 8.3 8.3 7.9 7.5 7.8 8.1 8.1 7.7 8.2 8.0 8.0 8.3 8.9 9.0
4.6 4.7 4.8 4.9 5.0 5.1 5.0 5.1 5.2 5.5 5.6 5.7 5.9 6.1 6.3 6.8 7.4 7.6 7.3 7.2 7.8 8.1 8.1 8.3 8.3 8.2 8.0 8.1 8.1 8.2 8.0 8.2 7.8 7.6 8.0 8.1 7.0 7.3 8.1 8.3 7.9 8.1 8.5 9.0 9.2
3.5 3.6 3.5 3.7 3.9 4.2 4.5 4.8 5.0 5.2 5.4 5.6 5.4 5.5 5.5 7.3 7.3 7.2 7.1 6.9 7.1 7.5 8.1 8.1 8.0 7.8 7.2 7.7 7.5 7.6 7.5 6.9 7.3 8.4 8.3 8.2 6.5 7.7 8.4 8.2 7.6 8.3 8.7 9.0 9.1
2.8 2.9 2.9 3.2 3.5 3.6 3.5 3.7 4.1 4.6 5.1 5.3 5.3 5.4 4.9 6.2 7.2 7.7 6.9 7.0 7.4 7.7 8.0 8.1 8.0 7.5 7.5 7.0 7.1 6.8 6.3 7.0 7.8 8.1 7.9 7.8 6.9 7.9 8.3 7.7 8.0 8.6 8.9 9.2 9.1
2.5 2.6 2.8 2.9 3.0 3.4 3.7 3.7 3.9 3.7 4.4 4.8 4.7 4.6 4.5 5.8 6.9 7.2 7.3 6.8 7.1 7.3 7.6 7.6 7.7 7.1 6.9 6.8 5.6 6.7 7.6 8.1 7.4 7.7 8.1 7.4 6.2 7.8 7.8 8.1 8.4 8.8 9.0 9.1 9.0
1.7 1.9 2.6 3.2 3.1 3.3 3.5 3.9 3.8 4.0 4.1 4.4 4.5 4.8 4.9 5.6 6.0 6.7 6.9 6.9 6.9 6.9 7.0 7.4 7.5 6.0 6.3 7.0 7.5 8.3 7.8 7.5 7.4 8.3 7.3 7.1 7.0 7.4 8.0 7.6 8.4 8.7 8.9 8.8 8.9
1.7 2.6 3.4 4.0 4.3 3.9 4.0 4.0 3.4 3.3 4.2 4.1 4.4 4.5 5.0 5.1 5.8 5.8 6.2 6.6 7.0 6.9 7.0 7.1 6.5 7.1 7.4 7.1 7.7 7.6 7.2 6.9 7.6 7.8 7.0 7.4 7.0 7.6 7.8 8.0 8.4 8.5 8.7 8.9 9.1
4.5 5.0 5.2 5.6 6.1 6.1 5.4 4.0 3.9 3.5 3.3 5.3 4.8 4.4 4.8 5.2 5.3 6.5 6.6 6.4 6.7 7.0 7.0 7.1 7.1 7.4 7.3 7.7 7.0 7.1 6.8 7.1 7.3 7.9 7.4 7.3 7.0 7.6 8.3 8.4 8.8 8.8 9.1 8.9 8.7
5.4 5.7 6.4 6.9 7.0 6.9 6.6 6.4 5.6 3.9 3.2 4.3 5.9 5.2 5.6 5.9 4.9 6.6 6.4 6.6 6.4 6.7 6.9 6.5 7.1 7.0 7.1 6.9 7.2 6.9 7.4 7.6 6.9 6.9 6.8 7.5 6.4 7.3 8.2 8.4 8.4 8.8 8.7 8.8 9.2
6.3 6.6 6.9 7.0 7.4 7.3 7.0 7.3 6.1 6.3 4.3 5.9 4.7 4.5 4.5 4.7 5.0 6.4 7.0 6.5 6.3 6.3 6.5 5.9 6.7 6.3 6.3 6.2 7.2 7.1 7.5 7.0 6.9 6.7 6.9 6.9 6.6 6.5 8.2 8.1 8.9 8.4 8.6 8.9 9.3
6.9 7.0 7.1 7.1 7.2 7.2 7.3 7.4 6.9 6.9 5.7 6.5 5.9 5.5 4.5 4.5 4.8 5.8 6.5 6.5 6.3 6.5 6.4 6.8 7.0 7.5 7.4 7.2 7.0 7.2 6.8 6.6 6.7 6.6 5.8 6.8 6.6 5.9 7.8 8.8 8.5 8.6 8.9 9.1 9.0
7.1 7.0 7.0 7.1 7.4 7.1 7.3 7.4 7.1 7.4 7.4 7.2 5.9 5.6 4.5 4.8 5.2 5.7 5.1 6.1 5.4 5.3 5.4 5.8 5.9 6.6 6.8 6.3 6.4 6.4 6.5 5.8 5.4 5.3 4.9 7.4 6.6 6.8 8.0 8.6 8.3 8.6 9.0 8.8 8.9
7.0 7.0 7.1 7.2 7.3 7.3 7.6 7.6 7.0 7.3 7.2 6.9 6.4 6.2 5.4 5.0 5.2 5.1 5.1 5.1 5.7 5.8 5.9 5.7 5.8 6.0 6.2 6.3 6.4 6.1 6.5 5.7 4.8 4.8 5.9 7.4 6.6 8.0 9.0 8.6 8.3 8.7 9.0 8.9 8.8
7.0 6.8 7.0 7.2 7.2 7.4 7.4 6.7 6.9 7.2 6.7 6.8 6.6 6.9 5.9 5.2 4.8 4.6 5.0 4.8 5.4 5.6 6.2 6.0 6.2 7.2 6.7 6.6 6.7 6.1 5.9 6.6 6.8 6.6 6.5 7.5 7.6 8.7 8.6 7.9 8.7 8.9 9.1 9.0 9.0
7.3 7.2 7.1 6.9 6.9 6.8 6.9 6.7 7.0 7.2 7.5 7.5 6.7 6.7 5.8 5.4 4.9 4.3 4.9 4.5 5.4 5.9 6.4 6.9 6.3 6.7 7.7 6.9 7.1 6.8 6.6 6.5 6.4 5.6 6.1 6.7 7.2 8.3 8.5 8.6 8.8 9.0 8.9 9.0 9.1
7.3 7.2 7.0 7.3 7.2 7.2 7.0 6.9 7.0 7.4 7.6 7.3 7.0 6.0 5.8 5.4 4.6 4.3 4.3 4.3 4.7 5.6 5.8 6.5 7.0 6.9 7.3 6.3 6.3 6.2 6.4 6.8 6.7 6.6 5.0 5.3 6.5 7.9 8.6 8.7 8.6 8.8 8.9 9.2 8.8
7.5 7.3 7.1 6.8 7.2 7.4 7.4 7.3 7.2 7.2 6.7 6.4 6.4 5.8 6.2 5.6 5.0 4.5 4.2 3.7 3.2 3.9 5.2 5.9 6.1 6.5 6.5 6.8 6.9 6.7 6.5 6.9 6.7 6.0 6.7 7.1 7.0 8.5 8.5 8.2 8.6 8.9 9.1 8.9 8.3
7.8 7.5 7.1 7.1 7.2 7.2 7.3 7.5 7.5 7.4 7.1 7.1 6.4 6.1 6.4 5.7 4.9 4.8 4.6 3.9 3.4 4.0 3.7 5.2 5.4 6.1 6.6 7.0 7.1 6.4 6.4 6.8 6.8 7.4 7.3 6.8 7.6 8.0 8.3 8.6 8.5 8.9 9.2 8.5 8.2
7.6 7.6 7.3 7.0 6.9 6.9 7.3 7.4 7.2 7.3 7.5 7.3 7.1 6.6 6.4 6.1 5.0 4.7 5.2 4.1 3.6 3.2 3.0 3.7 3.9 5.6 5.6 6.3 6.8 6.6 6.7 6.9 7.5 7.1 7.0 7.2 8.3 8.1 8.3 8.4 8.6 8.7 8.9 8.6 8.6
7.4 7.1 7.0 7.3 7.2 7.3 7.2 7.3 7.2 7.2 7.4 7.3 7.2 7.0 6.7 6.2 5.4 5.1 5.4 4.8 4.4 3.2 3.1 3.1 3.4 4.6 5.4 6.3 6.8 7.1 7.0 6.9 7.0 7.1 7.0 7.3 8.2 8.3 8.6 8.7 8.6 8.9 8.7 8.7 8.7
7.3 7.0 7.2 7.4 7.4 7.4 7.5 7.5 7.2 7.5 7.3 7.6 7.2 7.4 6.8 6.5 6.3 6.0 5.2 5.3 4.8 3.9 3.4 3.0 3.7 3.7 5.1 5.7 6.0 6.6 7.4 7.6 7.4 7.3 7.4 7.7 8.2 8.6 8.8 8.7 8.4 8.5 8.9 8.9 8.7
7.6 7.5 7.1 7.5 7.5 7.5 7.4 7.1 7.2 7.3 7.6 7.4 7.3 7.2 7.4 7.3 6.7 6.3 5.4 5.2 5.0 4.2 3.4 2.8 2.9 3.2 4.9 6.0 6.3 6.3 6.6 7.2 7.5 7.7 7.5 7.6 8.1 8.7 8.6 8.4 8.3 8.4 8.6 8.9 8.5
Wind_Speed
17 17 17 16 16 14 14 16 17 17 18 20 20 20 23 22 20 2 7 11 10 12 2 7 3 4 3 5 5 4 2 6 7 6 8 2 4 5 4 4 3 6 6 6 9
19 19 20 19 18 16 16 17 18 17 17 18 20 20 22 22 4 7 9 18 23 13 5 8 6 6 4 5 5 6 5 9 9 7 8 11 3 12 6 13 7 4 6 3 15
20 21 20 21 21 20 19 18 18 18 18 17 18 20 22 19 5 9 10 21 20 17 6 7 6 7 5 5 6 7 13 21 13 14 7 9 19 12 7 12 12 10 8 7 8
18 19 20 20 20 21 22 23 20 19 18 19 17 17 22 2 9 3 6 3 7 16 9 6 6 6 6 8 10 5 10 18 23 21 10 15 14 17 19 19 18 11 9 11 13
18 18 18 20 20 20 20 21 21 20 19 17 16 15 7 5 10 13 12 10 7 11 12 9 7 8 8 5 2 6 15 16 14 15 16 16 18 19 23 19 19 9 9 16 16
20 19 19 19 20 21 21 19 20 21 20 18 16 12 3 12 7 18 18 6 9 4 7 7 9 9 4 8 5 7 8 13 11 17 16 20 17 10 17 14 12 8 12 13 15
21 21 22 22 21 21 22 22 22 21 21 19 17 11 15 23 7 10 11 3 5 11 9 11 11 6 6 6 7 7 14 17 11 11 19 15 16 21 16 10 13 10 11 14 18
23 23 24 25 25 24 25 25 25 25 23 20 16 12 12 6 22 21 21 23 12 8 7 9 6 9 4 2 7 4 3 7 6 15 14 7 26 19 18 8 14 12 11 13 14
23 23 23 25 26 28 27 28 32 32 26 20 11 10 13 9 10 20 15 14 13 10 6 6 6 7 4 7 4 2 14 15 21 10 6 7 15 10 9 8 12 15 12 11 16
23 23 24 25 25 25 26 31 32 14 5 8 10 3 9 8 7 7 11 17 7 6 4 8 5 6 5 5 13 10 8 6 17 1 8 13 13 17 16 9 15 15 11 12 14
26 24 22 22 25 24 15 6 5 2 2 8 6 7 4 14 8 4 6 12 10 5 12 9 8 19 18 21 17 8 8 9 8 4 7 8 9 15 14 7 14 15 11 12 8
25 25 25 22 21 22 5 2 3 3 11 13 20 23 28 11 9 8 15 8 9 18 10 7 30 19 16 16 16 9 9 17 18 8 7 9 14 15 12 12 8 13 13 6 5
26 25 23 24 22 7 2 5 5 9 5 11 13 10 14 14 13 10 11 7 7 15 26 28 20 16 20 16 18 18 17 15 19 2 6 8 14 12 16 5 9 9 8 6 11
25 23 22 22 7 3 4 1 7 8 5 8 6 7 6 9 13 17 9 7 8 19 19 18 21 22 17 24 17 19 16 21 18 5 6 4 5 5 8 10 7 10 7 10 7
23 22 21 14 8 6 5 13 14 2 5 2 3 4 4 13 6 16 19 11 10 10 11 12 18 24 21 21 22 18 11 9 10 6 4 9 3 7 4 8 11 11 7 6 8
24 23 20 8 2 8 11 11 1 2 8 6 4 11 3 11 18 4 13 10 7 4 9 10 9 25 25 14 19 7 4 2 4 4 12 19 7 5 7 8 7 4 1 7 10
25 24 16 10 4 1 7 4 2 5 4 1 10 16 10 9 8 10 11 17 18 12 16 6 12 3 7 15 6 7 7 2 3 5 7 7 6 15 7 9 9 9 7 8 9
24 23 8 9 6 6 1 1 6 5 11 16 15 15 6 20 8 12 10 14 23 15 10 14 11 22 12 9 12 14 14 6 6 4 4 7 7 7 8 10 8 10 8 10 11
21 1 3 4 7 3 2 6 4 3 11 11 14 7 7 14 8 12 7 7 12 20 6 12 14 2 16 6 14 9 16 12 2 2 2 4 7 9 2 5 6 7 10 10 12
6 4 3 9 8 2 1 6 4 5 10 11 6 7 12 15 9 15 5 15 10 4 3 3 5 8 19 19 18 10 10 8 5 5 4 4 4 6 4 5 3 7 9 9 8
3 4 3 7 3 1 2 4 5 7 10 5 6 8 12 13 6 7 5 8 17 18 10 4 1 3 6 16 21 8 8 5 7 6 5 2 6 7 9 9 11 9 9 12 13
3 3 5 4 1 1 1 3 8 8 6 5 5 11 12 9 6 7 7 9 11 15 9 5 5 5 13 2 20 13 12 10 9 6 6 3 7 5 9 10 14 10 10 8 9
4 2 4 1 2 1 3 4 6 5 5 3 4 3 9 8 6 2 8 11 8 14 12 8 5 5 6 2 4 23 19 17 4 3 7 9 8 3 4 6 7 11 10 9 11
2 4 2 2 2 3 3 4 4 6 9 6 7 4 8 11 6 8 13 10 15 16 14 7 4 10 12 3 5 6 21 11 16 12 10 9 3 3 5 9 6 7 7 11 12
3 2 3 4 3 4 3 4 7 7 4 4 3 2 8 8 11 10 13 12 13 15 2 3 4 6 16 21 10 3 11 21 19 14 15 12 9 9 10 10 14 11 9 11 12
1 2 3 4 7 5 3 2 4 8 3 6 4 9 6 5 8 10 12 11 5 6 6 4 4 7 7 14 21 16 4 22 21 16 11 8 8 8 9 6 7 13 14 15 15
2 1 2 3 5 3 3 6 8 12 6 7 10 6 6 8 7 8 9 8 7 4 5 6 3 10 6 8 11 15 27 9 15 17 18 10 9 8 5 13 14 11 15 18 17
Wind_Direction
339 335 331 326 321 321 323 320 322 324 326 326 331 333 329 332 319 336 258 215 196 211 160 128 136 173 99 207 152 136 101 253 239 190 252 263 350 296 294 250 290 211 176 233 143
339 336 334 330 323 319 314 309 312 317 323 326 331 331 329 332 310 259 231 237 224 169 206 170 160 158 187 228 170 160 168 236 219 201 248 291 247 292 329 307 280 258 256 112 149
339 338 334 330 328 326 317 306 303 309 313 320 325 329 326 330 307 249 200 230 237 194 198 189 127 158 212 200 192 188 216 236 272 244 219 274 289 294 271 283 264 258 239 163 165
334 327 326 328 326 321 322 322 309 304 304 308 315 323 322 294 239 241 127 78 231 183 188 166 151 178 222 198 211 227 228 239 246 264 274 263 284 285 285 271 274 236 217 164 182
328 328 325 318 317 319 315 312 309 302 297 298 305 317 343 251 233 268 311 359 93 155 191 177 153 184 225 207 186 201 245 249 264 276 273 279 268 265 278 278 277 254 176 184 191
325 322 320 321 318 311 309 304 297 298 300 298 299 305 231 249 258 266 277 272 260 188 171 179 193 185 204 241 234 259 268 268 262 260 266 265 273 281 276 280 274 206 205 199 199
334 331 323 316 314 312 307 300 299 296 296 295 295 287 254 243 279 307 325 273 232 233 232 204 216 190 165 307 279 254 284 282 263 262 260 278 282 268 274 264 273 230 221 210 210
330 330 327 325 318 310 308 305 297 289 283 279 282 272 255 256 249 263 255 272 252 286 233 237 197 222 171 272 336 2 306 268 256 251 257 183 267 276 272 251 265 258 231 213 218
327 325 325 324 320 317 309 306 299 283 270 259 257 230 273 285 222 240 212 227 221 223 229 250 135 192 118 208 316 278 260 268 275 235 253 183 277 269 274 254 268 272 257 214 224
326 324 322 320 321 316 313 314 298 299 230 199 229 217 244 233 236 214 191 211 228 186 170 188 189 180 161 143 214 213 230 242 250 325 215 254 259 273 275 272 281 280 267 219 223
325 324 321 319 319 319 325 337 7 28 204 215 209 246 296 15 276 230 153 162 176 212 187 174 196 210 192 207 216 222 223 248 276 242 249 245 262 275 279 290 270 268 252 238 233
322 322 322 320 316 315 344 236 238 337 297 267 252 240 265 286 298 287 132 141 177 199 166 170 226 201 206 207 216 223 242 258 280 274 228 271 262 268 283 276 237 249 252 169 162
320 318 318 319 317 318 195 239 310 329 270 275 226 229 214 198 227 250 180 152 175 190 191 202 229 204 203 206 212 223 228 246 246 353 292 302 287 280 283 288 262 251 237 189 194
321 318 319 324 326 314 265 345 330 305 293 277 222 251 197 210 225 223 222 186 190 199 199 229 227 191 203 215 198 222 216 239 257 277 255 131 287 301 287 300 292 274 252 235 162
318 318 316 324 298 277 275 339 321 204 294 245 136 144 229 184 152 218 191 214 202 165 179 210 186 212 214 210 200 224 212 225 245 250 292 256 274 269 242 281 271 263 274 225 152
316 314 315 301 218 246 312 297 260 181 244 307 71 350 40 220 248 336 168 208 175 223 229 216 206 201 217 200 202 169 153 260 272 268 261 264 189 213 232 223 252 241 47 137 141
314 308 302 281 257 81 342 350 183 221 299 29 356 343 11 336 220 249 247 192 188 193 216 178 225 211 171 205 163 172 108 268 281 215 226 239 191 246 248 236 230 246 180 145 131
315 311 284 245 249 256 121 109 229 258 259 346 358 332 34 7 344 337 235 200 216 198 185 201 211 211 173 182 187 199 179 166 205 197 189 170 234 243 224 266 233 243 141 142 150
325 285 278 273 230 162 208 213 235 288 21 344 342 342 352 354 334 352 343 251 225 216 183 198 231 175 186 168 162 193 207 184 10 312 72 219 285 329 314 244 200 149 135 159 161
328 325 289 312 158 148 178 243 274 339 1 354 359 347 335 338 6 359 315 27 348 328 173 268 207 214 206 193 198 168 151 177 201 211 207 266 255 216 224 261 148 148 164 155 143
21 338 284 353 167 138 220 257 304 308 309 327 340 312 309 316 4 340 300 344 23 350 333 203 151 278 160 204 188 175 197 162 156 216 171 185 256 219 206 191 190 195 179 164 166
10 328 339 356 189 213 219 258 305 296 299 287 255 272 276 321 314 312 275 323 7 17 349 288 227 216 225 246 194 199 196 205 185 203 227 162 259 227 213 202 182 182 175 173 158
344 297 6 7 336 147 295 277 270 294 287 277 277 255 286 294 311 304 317 328 323 12 345 331 281 259 338 346 181 198 202 206 171 96 193 189 251 175 171 165 203 158 170 162 153
341 336 319 19 223 303 311 270 281 282 295 250 247 267 288 286 293 289 281 286 308 311 328 338 282 247 217 224 144 186 199 172 189 218 219 222 185 195 185 156 165 169 170 159 164
17 316 341 321 321 296 284 297 312 339 308 289 301 265 302 284 304 273 278 302 305 313 9 36 276 308 275 258 278 202 191 198 205 200 199 221 193 209 194 185 183 183 141 150 163
23 342 345 275 292 301 304 306 299 331 259 293 253 291 286 270 281 290 297 296 307 300 347 3 281 324 267 244 241 248 247 202 213 213 225 175 218 206 202 127 123 177 167 174 180
278 233 214 285 318 339 278 342 294 311 284 232 295 306 281 275 316 292 290 280 238 229 263 297 333 351 280 244 242 257 241 222 211 203 203 183 215 157 145 169 177 177 183 183 182